Weather History for KPBI - November, 2014

Change the Weather History Date:

Friday, November 28, 2014

  Actual Average Record
Temperature  
Mean Temperature 60 °F 71 °F  
Max Temperature 70 °F 78 °F 89 °F (1948)
Min Temperature 50 °F 63 °F 36 °F (1903)
Degree Days  
Heating Degree Days 5 1  
Month to date heating degree days 17 7  
Since 1 July heating degree days 17 8  
Cooling Degree Days 0 6  
Month to date cooling degree days 194 231  
Year to date cooling degree days 4130 3852  
Growing Degree Days 10 (Base 50)    
Moisture  
Dew Point 48 °F    
Average Humidity 65    
Maximum Humidity 77    
Minimum Humidity 53    
Precipitation  
Precipitation 0.00 in 0.13 in 4.10 in (1947)
Month to date precipitation 1.94 4.48  
Year to date precipitation 59.53 58.68  
Snow  
Snow 0.00 in - - ()
Month to date snowfall 0.0  
Since 1 July snowfall 0.0  
Since 1 September snowfall 0.0  
Snow Depth 0.00 in    
Sea Level Pressure  
Sea Level Pressure 30.19 in    
Wind  
Wind Speed 14 mph (NNW)    
Max Wind Speed 21 mph    
Max Gust Speed 26 mph    
Visibility 10 miles    
Events      
T = Trace of Precipitation, MM = Missing Value Source: NWS Daily Summary

Daily Weather History Graph

Daily Weather History Graph

Search for Another Location

Airport or City:

Trip Planner

Search our weather history database for the weather conditions in past years. The results will help you decide how hot, cold, wet, or windy it might be!

Date:

Astronomy

Nov. 28, 2014 Rise Set
Actual Time 6:49 AM EST 5:27 PM EST
Civil Twilight 6:24 AM EST 5:52 PM EST
Nautical Twilight 5:56 AM EST 6:20 PM EST
Astronomical Twilight 5:27 AM EST 6:48 PM EST
Moon 12:00 PM EST 11:52 PM EST
Length of Visible Light 11h 27m
Length of Day
10h 37m
Waxing Crescent, 42% of the Moon is Illuminated
Nov 28
Waxing Crescent
Nov 29
First Quarter
Dec 6
Full
Dec 14
Last Quarter
Dec 21
New

Hourly Weather History & Observations

Time (EST) Temp. Dew Point Humidity Pressure Visibility Wind Dir Wind Speed Gust Speed Precip Events Conditions
12:53 AM 57.0 °F 45.0 °F 64% 30.18 in 10.0 mi NNW 11.5 mph - N/A   Clear
1:53 AM 55.0 °F 43.0 °F 64% 30.18 in 10.0 mi NW 11.5 mph - N/A   Clear
2:53 AM 55.0 °F 44.1 °F 67% 30.17 in 10.0 mi NNW 15.0 mph - N/A   Clear
3:53 AM 54.0 °F 44.1 °F 69% 30.17 in 10.0 mi NNW 13.8 mph - N/A   Clear
4:53 AM 52.0 °F 44.1 °F 74% 30.17 in 10.0 mi NW 12.7 mph - N/A   Clear
5:53 AM 51.1 °F 43.0 °F 74% 30.19 in 10.0 mi NW 12.7 mph - N/A   Clear
6:53 AM 50.0 °F 43.0 °F 77% 30.20 in 10.0 mi NW 12.7 mph - N/A   Partly Cloudy
7:53 AM 53.1 °F 44.1 °F 71% 30.22 in 10.0 mi NNW 12.7 mph - N/A   Partly Cloudy
8:53 AM 57.9 °F 46.0 °F 65% 30.24 in 10.0 mi NNW 13.8 mph - N/A   Partly Cloudy
9:53 AM 63.0 °F 48.9 °F 60% 30.24 in 10.0 mi NNW 16.1 mph - N/A   Scattered Clouds
10:53 AM 66.0 °F 50.0 °F 56% 30.24 in 10.0 mi NNW 18.4 mph - N/A   Scattered Clouds
11:53 AM 68.0 °F 51.1 °F 55% 30.21 in 10.0 mi North 17.3 mph - N/A   Scattered Clouds
12:53 PM 69.1 °F 52.0 °F 54% 30.19 in 10.0 mi NNW 15.0 mph - N/A   Scattered Clouds
1:53 PM 69.1 °F 52.0 °F 54% 30.17 in 10.0 mi North 11.5 mph 21.9 mph N/A   Scattered Clouds
2:53 PM 69.1 °F 52.0 °F 54% 30.16 in 10.0 mi North 17.3 mph - N/A   Scattered Clouds
3:53 PM 68.0 °F 53.1 °F 59% 30.17 in 10.0 mi NNW 18.4 mph 21.9 mph N/A   Scattered Clouds
4:53 PM 66.0 °F 52.0 °F 60% 30.17 in 10.0 mi North 12.7 mph - N/A   Mostly Cloudy
5:53 PM 63.0 °F 52.0 °F 67% 30.18 in 10.0 mi NNW 13.8 mph - N/A   Mostly Cloudy
6:53 PM 62.1 °F 52.0 °F 70% 30.19 in 10.0 mi NNW 11.5 mph - N/A   Mostly Cloudy
7:53 PM 59.0 °F 51.1 °F 75% 30.20 in 10.0 mi NNW 12.7 mph - N/A   Scattered Clouds
8:53 PM 57.9 °F 50.0 °F 75% 30.20 in 10.0 mi NW 11.5 mph - N/A   Partly Cloudy
9:53 PM 57.0 °F 48.9 °F 74% 30.20 in 10.0 mi NNW 13.8 mph - N/A   Partly Cloudy
10:53 PM 55.9 °F 48.9 °F 77% 30.20 in 10.0 mi NW 12.7 mph - N/A   Scattered Clouds
11:53 PM 55.0 °F 48.9 °F 80% 30.20 in 10.0 mi NW 10.4 mph - N/A   Partly Cloudy